Weather reports worldwide

Advertisment
Fair Isle, United Kingdom (3008): temperature & dewpoint: 14.02.2018 11:00:00 - 20.02.2018 11:00:00 (GMT)Fair Isle, United Kingdom (3008): temperature -20cm & temperature -100cm: 14.02.2018 11:00:00 - 20.02.2018 11:00:00 (GMT)Fair Isle, United Kingdom (3008): wind speed & gusts: 14.02.2018 11:00:00 - 20.02.2018 11:00:00 (GMT)Fair Isle, United Kingdom (3008): wind direction: 14.02.2018 11:00:00 - 20.02.2018 11:00:00 (GMT)Fair Isle, United Kingdom (3008): reduced air pressure: 14.02.2018 11:00:00 - 20.02.2018 11:00:00 (GMT)Fair Isle, United Kingdom (3008): visibility: 14.02.2018 11:00:00 - 20.02.2018 11:00:00 (GMT)Fair Isle, United Kingdom (3008): precipitation: 14.02.2018 11:00:00 - 20.02.2018 11:00:00 (GMT)
Date & Time tt [°C] td [°C] tt -20cm [°C] tt -100cm [°C] ff [km/h] ff [kn] fx [km/h] fx [kn] dd ppp [hPa] vv [km] rr [mm]
20.02.2018 11:00:00 7,5 6,2 - - 16 9 - - WNW 1021,1 12 0,0
20.02.2018 10:00:00 6,7 5,7 - - 9 5 - - W 1020,7 8 0,0
20.02.2018 09:00:00 6,0 4,8 4,9 5,0 9 5 - - W 1020,1 17 0,0
20.02.2018 08:00:00 6,0 5,0 - - 15 8 - - W 1019,5 6 0,0
20.02.2018 07:00:00 5,8 4,1 - - 18 10 - - WNW 1018,5 15 0,0
20.02.2018 06:00:00 5,7 3,9 - - 15 8 - - NW 1017,6 15 0,2
20.02.2018 05:00:00 5,5 4,9 - - 21 11 - - NNW 1016,8 10 0,4
20.02.2018 04:00:00 5,5 5,1 - - 22 12 52 28 NW 1016,4 7 0,4
20.02.2018 03:00:00 5,5 5,3 - - 26 14 46 25 WNW 1015,9 9 2,6
20.02.2018 02:00:00 5,7 5,5 - - 31 17 48 26 SSE 1015,7 3,4 1,2
20.02.2018 01:00:00 5,7 5,5 - - 39 21 55 30 SSE 1015,9 3,3 0,6
20.02.2018 00:00:00 5,6 5,2 - - 41 22 59 32 SSE 1016,1 2,9 0,4
19.02.2018 23:00:00 5,7 5,2 - - 39 21 61 33 SE 1016,2 4,5 0,2
19.02.2018 22:00:00 5,6 5,0 - - 41 22 57 31 SSE 1016,5 7 0,6
19.02.2018 21:00:00 5,6 4,1 - - 41 22 55 30 SE 1016,8 3,8 0,4
19.02.2018 20:00:00 5,7 4,3 - - 39 21 55 30 SE 1016,9 12 0,2
19.02.2018 19:00:00 5,8 4,6 - - 31 17 48 26 SE 1016,9 13 0,8
19.02.2018 18:00:00 5,8 4,5 - - 34 18 54 29 SE 1017,0 11 0,2
19.02.2018 17:00:00 5,9 4,8 - - 28 15 - - SE 1017,1 10 0,2
19.02.2018 16:00:00 6,0 4,8 - - 26 14 - - SE 1017,1 9 0,4
19.02.2018 15:00:00 6,2 4,6 - - 28 15 - - SE 1017,2 11 0,2
19.02.2018 14:00:00 6,4 4,4 - - 29 16 50 27 SE 1017,0 22 0,0
19.02.2018 13:00:00 6,5 4,7 - - 29 16 46 25 SE 1016,9 19 0,0
19.02.2018 12:00:00 6,4 5,0 - - 31 17 48 26 SE 1016,7 15 0,0
19.02.2018 11:00:00 6,4 5,1 - - 34 18 48 26 SE 1016,5 14 0,0
19.02.2018 10:00:00 6,3 4,9 - - 28 15 46 25 ESE 1016,5 17 0,0
19.02.2018 09:00:00 6,2 4,5 4,7 5,0 26 14 46 25 ESE 1016,3 18 0,0
19.02.2018 08:00:00 6,2 4,1 - - 29 16 48 26 ESE 1016,1 21 0,0
19.02.2018 07:00:00 6,2 4,2 - - 29 16 50 27 ESE 1015,8 19 0,0
19.02.2018 06:00:00 6,2 3,7 - - 31 17 50 27 SE 1015,0 28 0,0
19.02.2018 05:00:00 6,1 3,4 - - 26 14 46 25 SE 1015,1 30 0,0
19.02.2018 04:00:00 6,0 3,1 - - 24 13 - - ESE 1015,0 29 0,0
19.02.2018 03:00:00 5,8 2,9 - - 31 17 48 26 SE 1015,0 30 0,0
19.02.2018 02:00:00 5,9 3,5 - - 26 14 - - SE 1015,0 25 0,0
19.02.2018 01:00:00 5,8 3,6 - - 24 13 - - ESE 1015,2 26 0,0
19.02.2018 00:00:00 5,9 3,8 - - 24 13 - - SE 1015,2 23 0,0
18.02.2018 23:00:00 5,8 3,8 - - 21 11 - - SE 1015,2 22 0,0
18.02.2018 22:00:00 5,9 3,8 - - 22 12 - - SE 1015,5 30 0,0
18.02.2018 21:00:00 5,7 3,2 - - 21 11 - - SE 1015,8 29 0,0
18.02.2018 20:00:00 5,6 2,7 - - 18 10 - - SE 1015,8 45 0,0
18.02.2018 19:00:00 5,5 2,9 - - 15 8 - - SE 1016,0 50 0,0
18.02.2018 18:00:00 5,0 2,2 - - 18 10 - - SSE 1016,0 40 0,0
18.02.2018 17:00:00 4,7 2,3 - - 15 8 - - S 1016,1 40 0,0
18.02.2018 16:00:00 5,1 2,6 - - 15 8 - - S 1016,5 45 0,0
18.02.2018 15:00:00 5,7 2,8 - - 15 8 - - SSE 1016,5 40 0,0
18.02.2018 14:00:00 5,5 2,3 - - 16 9 - - S 1016,9 45 0,0
18.02.2018 13:00:00 6,0 2,2 - - 16 9 - - SSW 1017,0 35 0,0
18.02.2018 12:00:00 5,7 2,7 - - 13 7 - - SSW 1017,0 30 0,0
18.02.2018 11:00:00 5,5 2,7 - - 16 9 - - SSW 1016,9 28 0,0
18.02.2018 10:00:00 5,0 2,4 - - 16 9 - - SW 1016,7 23 0,0
18.02.2018 09:00:00 4,8 2,6 4,7 5,0 18 10 - - SW 1016,7 29 0,0
18.02.2018 08:00:00 4,2 1,9 - - 16 9 - - SW 1016,3 21 0,0
18.02.2018 07:00:00 4,3 2,6 - - 21 11 - - SW - - 0,0
18.02.2018 06:00:00 4,4 1,8 - - 26 14 - - WSW - 30 0,0
18.02.2018 05:00:00 4,1 1,5 - - 28 15 - - WSW - - 0,0
18.02.2018 04:00:00 4,2 2,0 - - 22 12 - - SW - - 0,0
18.02.2018 03:00:00 4,0 1,6 - - 21 11 - - SW 1015,8 22 0,0
18.02.2018 02:00:00 4,1 0,2 - - 21 11 - - WSW 1015,4 26 0,0
18.02.2018 01:00:00 4,6 1,0 - - 22 12 - - W 1015,1 29 0,0
18.02.2018 00:00:00 4,5 2,3 - - 21 11 - - WSW 1014,6 19 0,0
17.02.2018 23:00:00 4,3 1,5 - - 29 16 - - WSW 1014,3 26 0,0
17.02.2018 22:00:00 3,6 1,1 - - 31 17 - - WSW 1013,8 30 0,0
17.02.2018 21:00:00 4,0 1,7 - - 34 18 46 25 WSW 1013,3 27 0,2
17.02.2018 20:00:00 3,9 2,2 - - 28 15 46 25 WSW 1013,1 16 0,2
17.02.2018 19:00:00 5,0 2,2 - - 31 17 46 25 SW 1012,6 19 0,0
17.02.2018 18:00:00 4,8 1,9 - - 28 15 52 28 WSW 1012,3 19 0,0
17.02.2018 17:00:00 5,4 1,7 - - 31 17 - - SW 1011,7 21 0,0
17.02.2018 16:00:00 5,5 2,2 - - 31 17 - - SW 1011,3 29 0,0
17.02.2018 15:00:00 5,9 1,8 - - 29 16 46 25 SW 1011,0 30 0,0
17.02.2018 14:00:00 5,5 2,2 - - 37 20 50 27 SW 1010,8 29 0,0
17.02.2018 13:00:00 5,9 3,2 - - 29 16 - - SW 1010,7 17 0,0
17.02.2018 12:00:00 5,9 3,6 - - 29 16 - - SW 1010,5 30 0,0
17.02.2018 11:00:00 5,9 3,5 - - 29 16 46 25 SSW 1010,3 20 0,0
17.02.2018 10:00:00 6,1 3,8 - - 31 17 - - SSW 1010,2 18 0,0
17.02.2018 09:00:00 5,6 3,7 4,5 5,0 29 16 - - SSW 1010,1 22 0,0
17.02.2018 08:00:00 5,4 3,4 - - 29 16 - - SSW 1010,0 15 0,0
17.02.2018 07:00:00 5,5 3,5 - - 31 17 - - SSW 1009,9 20 0,0
17.02.2018 06:00:00 5,8 3,8 - - 31 17 50 27 SSW 1009,8 17 0,0
17.02.2018 05:00:00 5,9 3,9 - - 41 22 55 30 SSW 1009,7 15 0,0
17.02.2018 04:00:00 5,7 4,0 - - 41 22 61 33 S 1009,7 15 0,2
17.02.2018 03:00:00 5,8 4,0 - - 44 24 61 33 S 1009,9 12 0,0
17.02.2018 02:00:00 5,6 3,5 - - 44 24 61 33 S 1010,4 10 0,0
17.02.2018 01:00:00 6,1 2,5 - - 42 23 57 31 S 1010,8 19 0,0
17.02.2018 00:00:00 5,9 3,7 - - 39 21 52 28 S 1011,4 15 0,0
16.02.2018 23:00:00 5,6 3,1 - - 29 16 46 25 S 1011,9 17 0,0
16.02.2018 22:00:00 5,6 2,6 - - 34 18 46 25 S 1012,3 28 0,0
16.02.2018 21:00:00 5,2 2,1 - - 29 16 - - S 1012,9 30 0,0
16.02.2018 20:00:00 5,2 2,7 - - 31 17 - - S 1013,2 26 0,0
16.02.2018 19:00:00 5,0 2,6 - - 29 16 - - S 1013,1 27 0,0
16.02.2018 18:00:00 4,9 2,3 - - 28 15 - - S 1013,2 23 0,0
16.02.2018 17:00:00 5,0 1,2 - - 28 15 - - SSW 1013,1 10 0,0
16.02.2018 16:00:00 5,4 1,8 - - 24 13 - - SW 1012,8 14 0,0
16.02.2018 15:00:00 5,5 2,1 - - 26 14 - - SSW 1012,5 12 0,0
16.02.2018 14:00:00 5,6 2,2 - - 29 16 - - SW 1012,3 24 0,0
16.02.2018 13:00:00 5,5 2,0 - - 31 17 - - SW 1011,9 21 0,0
16.02.2018 12:00:00 5,1 2,4 - - 35 19 50 27 SW 1011,4 15 0,0
16.02.2018 11:00:00 4,9 2,3 - - 35 19 48 26 SW 1010,7 13 0,0
16.02.2018 10:00:00 4,7 2,0 - - 35 19 48 26 SW 1010,0 9 0,0
16.02.2018 09:00:00 4,6 2,1 4,4 4,9 35 19 59 32 SW 1009,2 9 0,0
16.02.2018 08:00:00 4,6 1,8 - - 41 22 52 28 WSW 1008,0 10 0,0
16.02.2018 07:00:00 4,3 1,5 - - 31 17 46 25 WSW 1007,1 11 0,0
16.02.2018 06:00:00 4,5 1,6 - - 35 19 50 27 WSW 1006,2 13 0,2
16.02.2018 05:00:00 5,0 1,8 - - 41 22 57 31 SW 1005,2 9 0,0
16.02.2018 04:00:00 5,3 2,4 - - 42 23 59 32 SW 1004,2 10 0,0
16.02.2018 03:00:00 5,9 2,7 - - 41 22 55 30 WSW 1003,4 9 0,0
16.02.2018 02:00:00 5,8 3,2 - - 42 23 55 30 WSW 1002,2 9 0,2
16.02.2018 01:00:00 5,6 3,3 - - 41 22 59 32 WSW 1001,0 10 0,0
16.02.2018 00:00:00 5,7 2,9 - - 35 19 61 33 WSW 999,9 10 0,0
15.02.2018 23:00:00 5,5 3,1 - - 37 20 63 34 WSW 998,5 13 0,0
15.02.2018 22:00:00 5,8 3,5 - - 50 27 65 35 WSW 997,1 10 0,0
15.02.2018 21:00:00 5,5 3,7 - - 44 24 57 31 SW 995,7 9 0,0
15.02.2018 20:00:00 5,8 3,9 - - 42 23 61 33 SW 994,6 9 0,0
15.02.2018 19:00:00 5,7 3,7 - - 37 20 55 30 SW 993,7 13 0,0
15.02.2018 18:00:00 5,4 3,2 - - 39 21 59 32 SW 992,6 13 0,0
15.02.2018 17:00:00 5,3 3,1 - - 39 21 63 34 SSW 991,3 11 0,0
15.02.2018 16:00:00 5,3 2,9 - - 42 23 55 30 SSW 990,5 11 0,0
15.02.2018 15:00:00 5,4 2,2 - - 42 23 59 32 SSW 989,6 11 0,0
15.02.2018 14:00:00 5,8 2,3 - - 42 23 63 34 SSW 989,0 13 0,0
15.02.2018 13:00:00 5,5 1,7 - - 48 26 67 36 SSW 988,7 12 0,0
15.02.2018 12:00:00 5,4 2,4 - - 46 25 63 34 S 988,3 15 0,0
15.02.2018 11:00:00 5,2 1,8 - - 46 25 63 34 SSW 988,0 11 0,0
15.02.2018 10:00:00 4,8 1,8 - - 52 28 67 36 S 987,3 16 0,0
15.02.2018 09:00:00 4,7 1,1 4,0 5,0 50 27 68 37 S 986,7 14 0,0
15.02.2018 08:00:00 4,6 1,1 - - 50 27 70 38 S 986,4 16 0,0
15.02.2018 07:00:00 4,9 0,5 - - 50 27 67 36 S 986,1 19 0,0
15.02.2018 06:00:00 5,3 1,4 - - 50 27 65 35 S 985,9 15 0,0
15.02.2018 05:00:00 5,3 1,3 - - 48 26 68 37 S 985,6 11 0,0
15.02.2018 04:00:00 5,5 1,9 - - 48 26 65 35 S 985,5 12 0,0
15.02.2018 03:00:00 5,2 1,8 - - 48 26 65 35 S 985,2 10 0,0
15.02.2018 02:00:00 5,2 2,0 - - 52 28 68 37 S 985,4 13 0,0
15.02.2018 01:00:00 5,5 2,2 - - 48 26 76 41 S 984,3 14 0,0
15.02.2018 00:00:00 5,7 2,1 - - 54 29 72 39 S 984,3 13 0,0
14.02.2018 23:00:00 5,4 3,6 - - 46 25 67 36 S 983,9 12 0,0
14.02.2018 22:00:00 5,0 3,4 - - 52 28 76 41 S 983,4 10 0,2
14.02.2018 21:00:00 4,8 3,7 - - 59 32 80 43 S 983,6 8 1,0
14.02.2018 20:00:00 5,3 3,7 - - 59 32 83 45 S 983,7 6 0,2
14.02.2018 19:00:00 5,4 3,6 - - 59 32 93 50 SSE 984,3 6 0,0
14.02.2018 18:00:00 5,1 3,3 - - 70 38 102 55 S 984,6 8 0,0
14.02.2018 17:00:00 4,7 3,4 - - 67 36 107 58 SSE 985,1 4,0 0,4
14.02.2018 16:00:00 3,6 2,6 - - 72 39 107 58 SSE 985,5 4,2 0,6
14.02.2018 15:00:00 3,3 2,2 - - 78 42 113 61 SSE 986,1 2,4 1,4
14.02.2018 14:00:00 4,0 0,8 - - 78 42 113 61 SSE 986,8 6 0,0
14.02.2018 13:00:00 5,0 0,4 - - 85 46 107 58 SSE 988,0 8 0,0
14.02.2018 12:00:00 5,0 0,1 - - 68 37 100 54 SSE 989,6 10 0,0
14.02.2018 11:00:00 4,9 -0,5 - - 68 37 96 52 SSE 990,4 10 0,0

tt = temperature
td = dewpoint
tt -20cm = temperature -20cm
tt -100cm = temperature -100cm
ff = wind speed
fx = gusts
dd = wind direction
ppp = reduced air pressure
vv = visibility
rr = precipitation

Next stations